This is the latest recevied weather packets stored in our database for station/object N9CQS-15. If no packets are shown the sender has not sent any weather packets the latest 10 day(s).
| Time | Temp. | Humidity | Pressure | Rain* | Wind** | Luminosity | Snow |
|---|---|---|---|---|---|---|---|
| 1777608542 | 11.11° C | 73% | 1014.9 hPa | 0 mm | - | - | - |
| 1777607942 | 11.11° C | 72% | 1014.9 hPa | 0 mm | - | - | - |
| 1777607341 | 11.11° C | 73% | 1014.9 hPa | 0 mm | - | - | - |
| 1777606741 | 11.67° C | 73% | 1015.2 hPa | 0 mm | - | - | - |
| 1777606142 | 11.67° C | 74% | 1015.2 hPa | 0 mm | - | - | - |
| 1777605542 | 11.67° C | 74% | 1015.3 hPa | 0 mm | - | - | - |
| 1777604942 | 12.22° C | 75% | 1015.3 hPa | 0 mm | - | - | - |
| 1777604342 | 12.22° C | 69% | 1015.3 hPa | 0 mm | - | - | - |
| 1777603742 | 12.22° C | 72% | 1015.1 hPa | 0 mm | - | - | - |
| 1777603142 | 12.22° C | 72% | 1015.1 hPa | 0 mm | - | - | - |
| 1777602542 | 12.22° C | 72% | 1015 hPa | 0 mm | - | - | - |
| 1777601941 | 12.22° C | 70% | 1015 hPa | - | - | - | - |
| 1777601342 | 12.78° C | 68% | 1014.9 hPa | 0 mm | - | - | - |
| 1777600741 | 12.78° C | 66% | 1014.7 hPa | 0 mm | - | - | - |
| 1777600142 | 12.78° C | 65% | 1014.6 hPa | 0 mm | - | - | - |
| 1777599542 | 12.78° C | 65% | 1014.7 hPa | 0 mm | - | - | - |
| 1777598943 | 12.78° C | 65% | 1014.7 hPa | 0 mm | - | - | - |
| 1777598342 | 13.33° C | 61% | 1014.7 hPa | 0 mm | - | - | - |
| 1777597741 | 13.33° C | 62% | 1014.7 hPa | 0 mm | - | - | - |
| 1777597142 | 13.33° C | 60% | 1014.6 hPa | 0 mm | - | - | - |
| 1777596541 | 13.33° C | 60% | 1014.5 hPa | - | - | - | - |
| 1777595942 | 13.89° C | 60% | 1014.5 hPa | 0 mm | - | - | - |
| 1777595343 | 13.89° C | 59% | 1014.5 hPa | 0 mm | - | - | - |
| 1777594744 | 13.89° C | 56% | 1014.5 hPa | 0 mm | - | - | - |
| 1777594143 | 14.44° C | 55% | 1014.5 hPa | 0 mm | - | - | - |
* Rain latest hour (hover to see other rain measurements)
** Current wind speed in m/s (hover to see current wind gust speed)